"Fecha","Premium_PE","Super_PE","Gasoil_PE","Fuel_PE","GLP_PE","PropanoInd_PE","Premium_PPI","Super_PPI","Gasoil_PPI","Fuel1_PPI","Fuel3_PPI","GLP_PPI","PropanoInd_PPI"
"2002-01-01","16.3","15.6","6.2","2208.99","10.23","0","13.97390684","13.4812819","5.54653908","2653.74937315","2488.99519943","9.87824831","0"
"2002-02-01","16.69","15.99","6.44","2286","10.53","0","14.1003605","13.63827583","5.59696209","2618.85868377","2565.24915915","10.26094754","0"
"2002-03-01","16.8","16.1","6.5","2307","10.61","0","15.0713875","14.56854247","6.0685293","3246.27170951","3186.33558882","11.09801291","0"
"2002-04-01","17.57","16.87","6.94","2418.17","11.14","0","15.78361657","15.23680934","6.55644284","3970.55956209","3860.34102682","12.03574994","0"
"2002-05-01","18.44","17.74","7.46","2607.22","11.95","0","15.7289901","15.22102894","6.72322772","4284.85692501","4014.55297236","12.3352001","0"
"2002-06-01","18.5","17.8","7.5","2620","12","0","15.85503445","15.35022347","6.79405863","4307.91230583","4084.70099435","12.38625211","0"
"2002-07-01","18.82","18.09","7.79","2730.65","12.49","0","17.55598797","16.90131031","8.20077509","5370.10242625","5177.35598388","14.69908984","0"
"2002-08-01","20.47","19.67","9.08","3202.39","14.57","0","18.52111382","17.87583132","9.34408209","6895.41979009","6373.13380044","17.28321858","0"
"2002-09-01","22.1","21.3","9.9","3468","15.77","19353.57","19.3411906","18.70117146","10.42999759","7595.2821647","7430.29989176","19.55154641","24141.56125484"
"2002-10-01","22.1","21.3","9.9","3468","15.77","18573","19.17564372","18.60892008","9.94918163","7354.0587041","6885.48893043","18.96782511","23577.77885981"
"2002-11-01","22.1","21.3","9.9","3468","15.77","18573","18.51511492","17.77370121","9.69614679","7028.26084291","6244.11090334","19.92285195","23521.52343022"
"2002-12-01","22.1","21.3","9.9","3468","15.77","18573","19.05960371","18.49892952","10.641379","7702.68347289","7009.8804303","21.18220078","24531.13424329"
"2003-01-01","24.81","23.92","11.12","3890.85","17.67","20767.6","22.94299993","22.29648448","12.39159847","8990.99942008","8408.88081036","23.03879332","28348.81722303"
"2003-02-01","25.6","24.7","11.75","4108.01","18.71","21060.62","24.19003417","23.62089852","14.18055443","10550.58160789","9192.12647703","24.87560081","30279.71964002"
"2003-03-01","27.4","26.5","13.4","4672","21.32","21280","24.37679869","23.62730792","14.07676449","10264.43646783","8706.66609754","23.60243486","28580.21387477"
"2003-04-01","25.4","24.5","13.4","4672","21.32","21280","23.51295906","22.65166723","11.93759502","7695.98863577","6707.45436367","21.10292462","26338.0337532"
"2003-05-01","24.4","23.5","13.4","4672","21.32","21280","23.70501057","22.89937123","11.70202977","7835.25426189","7000.46062015","22.00379015","27354.26663583"
"2003-06-01","24.4","23.5","13.4","4672","21.32","21280","23.20366042","22.44073031","11.38720248","7316.70893807","6524.89219386","21.0639668","26324.83848656"
"2003-07-01","24.4","23.5","13.4","5614.97","21.32","21280","23.72466953","22.96065432","11.53928244","7624.88933371","7318.0605381","20.97910483","25909.92935751"
"2003-08-01","24.58","23.71","13.58","6064","21.63","21596.59","25.10175102","24.23341898","12.34563185","7802.16885691","7473.17884076","22.00075339","27074.10267406"
"2003-09-01","25.8","25.1","14.8","6064","23.76","23733.58","24.16898606","23.19112415","11.77882288","7224.34599691","6789.61596716","21.65665307","27570.11974837"
"2003-10-01","25.8","25.1","14.8","6064","23.76","23733.58","24.40060399","23.49362221","12.86965405","7729.72405251","7268.56399677","23.10846512","28428.3380565"
"2003-11-01","25.8","25.1","14.8","6064","23.76","23733.58","24.28711264","23.55017865","13.18390077","7923.27295981","7503.0824947","23.67669473","28621.78889339"
"2003-12-01","25.8","25.1","14.8","6064","23.76","23733.58","24.75960674","24.05985047","13.70889137","8711.9657064","7936.3222573","25.05080378","30524.46166637"
"2004-01-01","27.02","26.32","15.83","6064","25.43","25389.78","26.7814898","25.9076384","14.87433618","9786.1615976","8674.59238739","26.85049488","34403.79894675"
"2004-02-01","27.1","26.4","15.9","6064","25.54","25504","27.20298789","26.4231659","14.45736125","9218.81541585","8347.90282474","24.7898884","32134.27757754"
"2004-03-01","27.83","27.11","16.67","6064","26.93","26891.1","27.70018365","26.88330488","14.88674822","8205.7367998","7751.38479679","24.70127932","32221.03103498"
"2004-04-01","28.5","27.5","17.1","6064","27.7","27654","28.0997524","27.19391187","14.6847917","8344.06376851","8067.21227369","24.79648545","32415.52335762"
"2004-05-01","28.5","27.5","17.1","7323.61","27.7","27654","29.97736105","28.98172132","15.87194487","9548.36172202","8902.19440405","26.33357962","33950.2765313"
"2004-06-01","28.5","27.5","17.1","7691","27.7","27654","28.39455358","27.5369579","15.77314971","9570.85430577","8499.9030892","26.23487162","33832.78199242"
"2004-07-01","29.43","28.35","17.72","7691","26.65","26587.94","29.53556867","28.62682297","16.53537856","9083.96015721","8317.53190789","27.39110774","34066.49389585"
"2004-08-01","30.9","29.7","18.7","7691","25","24900","29.05413399","27.99710182","17.01980847","8846.05237458","8136.42040603","28.45543753","35119.55439052"
"2004-09-01","30.9","29.7","18.7","7691","25","24900","29.10076148","28.13546368","17.55603647","8577.07103646","8174.00134876","27.95150079","33720.72922058"
"2004-10-01","30.9","29.7","18.7","7691","25","24900","29.36426099","28.61082023","19.16171645","10261.90936825","9740.02958813","29.50579726","35167.33116721"
"2004-11-01","30.9","29.7","18.7","7691","25","24900","28.53441821","27.86109224","18.22585704","9475.1264798","8458.19649114","28.51376154","34002.77068184"
"2004-12-01","30.83","29.64","18.65","7691","25","24900","26.90170028","26.28340756","16.97411577","8521.72943571","7894.99190168","26.58167369","32333.436348"
"2005-01-01","28.7","27.7","17.2","7691","25","24900","28.17628823","27.48173849","16.63029752","9023.99480458","8326.87510205","25.50533722","30783.28443434"
"2005-02-01","28.7","27.7","17.2","7691","25","24900","27.63135426","26.95223579","16.53268837","8350.26865981","7790.20885076","25.460378","30758.13670484"
"2005-03-01","28.7","27.7","17.2","7691","25","24900","30.1225243","29.32419871","18.98127229","9692.7513788","8810.35034577","27.56235099","33284.44277159"
"2005-04-01","30.5","29.4","18.7","8410","25","24900","30.80424468","29.71245067","18.49846641","9968.81715636","9179.92282165","27.06150619","32623.79820519"
"2005-05-01","30.5","29.4","18.7","8410","25","24900","29.13489798","28.14921775","16.98925134","9858.98283491","9394.9890963","25.15271053","31113.80372394"
"2005-06-01","30.5","29.4","18.7","8410","25","24900","29.72496293","28.79471074","18.59596854","10427.35072919","9299.42952571","25.60168281","31272.1813446"
"2005-07-01","31.17","30.07","19.42","8781.61","25","24900","31.22750663","30.01276941","19.14712676","10649.65512576","9434.23259808","26.46103479","31944.18467532"
"2005-08-01","31.8","30.7","20.1","9130","25","24900","33.33186205","32.16907212","20.22767895","11031.13928499","9389.55705904","27.54920181","33420.9096532"
"2005-09-01","32.87","31.71","20.74","9434","25.82","25700","37.01581058","35.4876848","21.95145138","12175.87667446","10669.33509587","30.55159411","37199.21678597"
"2005-10-01","33.8","32.6","21.3","9700","26.54","26400","32.51858724","31.20071827","21.35209332","12349.42199164","11002.94378724","30.04007093","36864.39236453"
"2005-11-01","33.35","32.15","20.98","9564.52","26.16","26038.71","29.1530011","28.2256287","18.42885783","11874.85420471","10143.46135811","28.61301518","34156.10690769"
"2005-12-01","32.8","31.6","20.6","9400","25.69","25600","30.45224861","29.33374495","18.80805741","11777.85188145","10245.47306622","29.91069353","35159.36270189"
"2006-01-01","32.8","31.6","20.6","9400","25.69","25600","32.35912487","31.27780105","20.23898405","11820.60966684","11152.65054954","29.87199692","34516.43540831"
"2006-02-01","32.8","31.6","20.6","9400","25.69","25600","30.96874342","30.04077948","19.55992216","11769.98029608","11427.50061143","28.51910243","33366.81828125"
"2006-03-01","32.8","31.6","20.6","9400","25.69","25600","33.97029747","32.47741098","20.44137449","11665.14899016","11511.72215982","28.06160686","33492.63487399"
"2006-04-01","33.13","31.92","20.95","9575","26.09","25600","36.21858804","34.86495469","21.77739531","12244.66727873","11779.29600283","29.2841332","34902.43293335"
"2006-05-01","34.8","33.5","22.7","10450","28.07","25600","36.1332297","34.3281502","22.02536377","11838.53359945","11510.33635895","29.46397449","35232.99449509"
"2006-06-01","34.8","33.5","22.7","10450","28.07","25600","37.03709244","34.86968707","21.62435818","11630.89386114","11455.01668403","30.30559582","36117.51892023"
"2006-07-01","34.8","33.5","22.7","10450","25.23","25600","37.58692387","35.8410772","21.91285196","11706.51348316","11686.04697783","31.53695529","37239.9194784"
"2006-08-01","35.64","34.34","23.64","10899.03","25.23","25600","36.05784464","34.1533139","22.62990738","12125.40503804","11942.87233644","31.32319652","36799.21213996"
"2006-09-01","34.79","33.5","22.98","10571","25.11","25440","31.60378172","30.32056865","20.1652172","9727.5722407","9716.32038181","29.08805663","34527.62195976"
"2006-10-01","31.1","29.9","21.9","9680","24","24000","31.02999803","29.87856613","19.531242","9712.29647854","9848.25115514","28.08773628","32521.73895957"
"2006-11-01","30.4","29.3","22.3","9280","23","23000","31.95721185","30.52583154","19.47668017","10350.88211429","10104.71064578","28.45585992","32462.03405614"
"2006-12-01","30.4","29.3","22.3","9280","23","23000","32.27507448","31.03090235","20.37381509","10115.52707628","9888.78061539","28.9992105","32976.23624652"
"2007-01-01","31.14","29.97","22.37","9280","23","23000","31.40435233","30.26672479","18.86078618","9706.07867416","9464.68270559","28.12493117","31769.26848862"
"2007-02-01","30.6","29.4","21.9","9040","22.38","22380","33.24560598","32.10997142","19.99469959","10256.01412249","10489.98936787","28.74563456","32729.29085507"
"2007-03-01","31.37","30.17","22.98","9535.48","22.63","23634.19","35.91277376","34.30889955","20.91803409","10866.63210562","10791.13686954","30.33572037","34993.98493353"
"2007-04-01","31.6","30.4","23.3","9680","24","24000","38.02903816","36.37305363","21.85784267","11610.69248428","11562.82777493","31.20075253","35522.68052731"
"2007-05-01","31.96","30.76","23.93","9932.9","24.62","24623.23","38.26521177","37.06996823","21.91041856","12712.63210935","12638.05668202","32.45592967","36541.7846838"
"2007-06-01","32","30.8","24","9960","24.69","24690","37.98686272","36.39018113","22.57543971","12650.61629325","12254.21541674","31.86516201","36362.81864052"
"2007-07-01","32.45","31.19","24.61","10150.62","24.34","24335.16","37.50839338","35.81143047","22.59397459","13054.86244672","13094.67692597","32.04106275","36496.2058617"
"2007-08-01","33.64","32.34","26.5","10898.71","26.13","26130.64","35.86605763","34.37935141","21.66450164","12350.19009489","12679.60078957","32.10878816","37260.37479845"
"2007-09-01","32.37","31.13","26.35","10851.33","25.21","25210.33","35.64007432","34.53089373","22.93815076","12681.93730091","12773.97024785","33.64401879","38063.15553389"
"2007-10-01","31.6","30.4","26.2","10800","24.62","24620","34.9775828","33.7962876","22.53177246","12761.19512328","13208.30732705","34.60146355","38752.01897954"
"2007-11-01","31.6","30.4","26.51","10920","24.62","24620","36.05916639","35.04307328","24.98425855","14370.94139688","14470.85066865","36.41830469","40321.55611239"
"2007-12-01","31.6","30.4","29.3","12000","24.62","24620","31.35731644","30.31693878","24.19214124","14988.80810119","14382.1857793","35.91731098","39528.30506875"
"2008-01-01","31.6","30.4","29.3","12000","24.62","24620","31.35488124","30.20809697","23.47736163","14427.90057678","13515.38565334","34.95797647","38350.79236577"
"2008-02-01","31.6","30.4","29.3","12000","24.62","24620","31.70471956","30.61329843","25.6191959","13390.13585891","12956.24750561","33.22283119","36848.79402815"
"2008-03-01","31.68","30.48","29.39","12116.13","24.7","24698.71","33.09083669","31.66710158","28.19403606","13711.95441354","13736.11419773","35.59114604","37230.00882154"
"2008-04-01","32.2","31","30","12900","25.23","25230","33.68376704","32.52041099","28.79041153","14661.4555513","14116.3655609","35.88001719","38283.74296001"
"2008-05-01","33.1","31.9","31.6","13510","26.46","26460","35.35535109","34.27911911","32.05920243","16432.68732722","15590.28759422","37.839153","40414.81868411"
"2008-06-01","34.43","33.16","32.86","14042","27.48","27482","35.82397045","34.88852474","33.20629473","18470.89297224","17019.71038824","38.79828895","41867.46698214"
"2008-07-01","35","33.7","33.4","14270","27.92","27920","35.13490221","34.06569986","32.96792415","19009.47644811","18492.46984379","39.33478997","37652.52620815"
"2008-08-01","35","33.7","33.4","14270","27.92","27920","33.73943521","32.73876656","29.15938699","16863.46131552","17047.1327524","36.12925844","32863.59391816"
"2008-09-01","33.38","32.17","31.87","13604","26.61","27920","36.45495405","35.01538074","28.8547316","15727.08315278","15951.93087782","35.80645379","33899.00216239"
"2008-10-01","31.87","30.67","30.44","12936.45","25.38","26703.23","29.26388612","28.07394344","25.27570166","12703.17750511","12693.72542941","30.96739203","27381.43052343"
"2008-11-01","29.75","28.64","28.44","12071.33","23.67","24936.67","26.32339002","24.91588676","22.21065278","9213.33796818","8314.56891007","27.12273217","23214.42814168"
"2008-12-01","28.33","27.32","26.67","11428.07","22.42","23637.1","24.3325279","23.2852104","18.43129317","8677.07826076","7763.66814549","25.16720218","21072.82692251"
"2009-01-01","26.81","25.81","25.18","10657.74","21.18","22343.23","26.30637001","25.18350814","18.03793953","8552.15557419","8207.80085875","27.34574136","21800.39196123"
"2009-02-01","24.97","24.06","23.46","9735.71","19.81","20821.43","27.20278776","25.91365769","16.5521011","8204.05382609","8261.6767076","26.80285755","20204.19489569"
"2009-03-01","24.8","23.9","23.3","9650","19.69","20680","27.90319952","26.71663124","16.64068007","8895.81105841","8834.27691377","26.82240803","20660.53582306"
"2009-04-01","24.8","23.9","23.3","9650","19.69","20680","28.86223056","27.43848885","17.52742899","9904.93300559","9405.74611266","26.89854698","20497.33843703"
"2009-05-01","26.28","25.29","24.61","10216.29","20.83","21864.52","30.53892755","29.38154621","18.74761876","11305.81052756","11196.04158392","27.73318278","25417.30416309"
"2009-06-01","28.57","27.48","26.6","11047","21.83","23651","31.63692063","30.47156097","21.15378144","12897.11623938","12605.97068898","30.00769674","27894.90849185"
"2009-07-01","28.8","27.7","26.8","11130","21.92","23830","30.2896723","29.26557691","20.19247934","12473.67783674","12405.61688547","28.73521392","26791.79793296"
"2009-08-01","30.7","29.51","28.52","12024.19","22.69","25383.55","31.14526225","30.1498452","21.8830494","13448.2625021","13376.9931057","30.86677204","29322.83854724"
"2009-09-01","30.9","29.7","28.7","12120","22.77","25550","29.64562376","28.46283495","20.24759795","12407.35046993","12385.28321396","30.57976419","29362.06916999"
"2009-10-01","30.9","29.7","28.7","12120","22.77","25550","29.79641176","28.69323631","20.81206887","12671.90035239","12544.7673081","30.8296792","29185.05236405"
"2009-11-01","30.9","29.7","28.7","12120","22.77","25550","29.70994914","28.70662255","20.96249674","13234.31337655","13029.97517829","31.70377539","29795.20416701"
"2009-12-01","30.81","29.61","28.61","12060.97","22.71","25550.1","29.2128734","28.24755141","20.38939305","12431.07070281","12315.83341935","32.28733832","30613.98605386"
"2010-01-01","30","28.8","27.8","11510","22.15","25551","30.49349394","29.47650418","20.86098136","12805.62873433","12750.04590129","33.09755776","31935.30521355"
"2010-02-01","30","28.8","27.8","11510","22.15","24850","30.55136144","29.55173489","20.50714979","12422.64495828","12464.0521678","32.79220284","31743.41017255"
"2010-03-01","30","28.8","27.8","11510","22.15","24850","31.79586971","30.58979249","21.32268304","12662.85672196","12585.04406146","31.84386243","29801.97769893"
"2010-04-01","30","28.8","27.8","11510","22.15","24850","32.39269285","31.02411355","22.04614238","13222.27047834","12831.7383913","32.36341419","29574.49367094"
"2010-05-01","30","28.8","27.8","11510","22.15","24850","30.73548222","29.56794147","20.61089337","12202.21313755","11816.33937707","31.28066638","28764.42283004"
"2010-06-01","30","28.8","27.8","11510","22.15","24850","31.26549904","30.15508116","21.54228578","12476.40620992","12277.57800124","32.23897544","29259.97708373"
"2010-07-01","30","28.8","27.8","11510","22.15","24850","31.77190297","30.70012915","21.81686962","13178.15704854","12774.68361327","33.46236729","30768.91181459"
"2010-08-01","30","28.8","27.8","11510","22.15","24850","31.30797973","30.32609896","22.04055446","13353.65954263","12835.50558227","33.76629898","31623.030016"
"2010-09-01","30","28.8","27.8","11510","22.15","24850","30.97273496","29.96699635","22.05754413","13074.89006183","12711.116155","34.25629103","32148.309154"
"2010-10-01","30","28.8","27.8","11510","22.15","24850","31.83814067","30.62416067","22.85004971","13202.33864169","12950.74321493","35.41640278","33136.12079033"
"2010-11-01","30","28.8","27.8","11510","22.15","24850","31.8022047","30.63987283","22.95130552","13413.83809434","13045.63429118","35.82773395","33165.6170826"
"2010-12-01","30","28.8","27.8","11510","22.15","24850","32.65203069","31.49397584","23.67219498","13921.9577197","13663.26060836","36.76697512","33722.02583753"
"2011-01-01","31.74","30.45","29.37","12163.23","23.42","26260.97","33.9595265","32.8353064","25.01408526","14081.11488194","14121.90057025","36.75746137","34865.68253779"
"2011-02-01","32","30.7","29.6","12260","23.61","26470","34.39909037","33.25557905","26.15481599","15417.91445116","15196.95740476","37.01909417","34947.09392585"
"2011-03-01","34.81","33.41","32.31","13420","25.85","28967.74","36.75683937","35.48669552","28.04582414","17459.99374219","16855.36269756","37.61035529","35386.51712995"
"2011-04-01","35","33.6","32.5","13500","26","29140","38.84360999","37.21490722","29.18937912","17923.40734416","17442.05528624","38.24608479","36042.59491005"
"2011-05-01","35","33.6","32.5","13500","26","29140","38.00555629","36.6948354","27.84293684","16577.8676648","16135.56797502","38.3039299","36648.1300222"
"2011-06-01","35","33.6","32.5","13500","26","29140","36.9540433","35.33276158","27.53490374","16950.13272325","16346.33924681","37.59429984","36300.65609387"
"2011-07-01","35","33.6","32.5","13500","26","29140","37.99475503","36.29220459","28.0961818","17141.19404262","16485.80678383","37.99074071","36621.81955107"
"2011-08-01","35","33.6","32.5","13500","26","29140","37.18993831","35.57161254","27.66926908","16155.34133154","15992.43607089","39.48362131","37027.05565174"
"2011-09-01","35","33.6","32.5","13500","26","29140","36.6730302","35.24705668","28.40115928","16858.84557646","16756.14250558","41.1932873","38450.68895902"
"2011-10-01","35","33.6","32.5","13500","26","29140","36.88910494","35.58364491","29.06020478","17328.44799318","17255.34809479","40.6633655","37764.18968427"
"2011-11-01","35","33.6","32.5","13500","26","29140","36.42653826","34.89572586","29.97633377","17701.73805092","17563.47549305","40.73312474","37527.56590165"
"2011-12-01","36.16","34.76","33.6","13952.9","26.89","30138.71","36.56821977","35.01114716","29.06541726","17357.04487808","16899.98842709","42.12597421","37710.37148699"
"2012-01-01","37","35.6","34.4","14280","27.54","30860","37.82647562","36.13401714","29.79839226","17846.56146894","17602.56743519","40.92756761","35835.60973133"
"2012-02-01","37","35.6","34.4","14280","27.54","30860","38.92973589","37.27834935","30.90000385","19095.42432145","18650.91549283","39.8189525","34705.12041507"
"2012-03-01","37","35.6","34.4","14280","27.54","30860","40.30133211","38.72492599","31.48171161","20408.14673125","19533.41848728","40.79339842","35500.72780531"
"2012-04-01","38.54","37.07","35.52","14882","28.67","32155","40.9265714","39.03928984","31.3282921","20417.40034283","18847.10921924","40.68862538","34659.10665479"
"2012-05-01","39.2","37.7","36","15140","29.15","32710","39.95291776","37.70622302","30.2119156","19039.48182826","18069.14590527","38.22594822","32334.41224644"
"2012-06-01","39.2","37.7","36","15140","29.15","32710","37.38260691","35.97930597","28.98777982","17263.21504263","16872.07022312","41.92416151","38643.52231095"
"2012-07-01","39.2","37.7","36","15140","29.15","32710","40.68244931","38.33441119","30.70898901","18939.53611768","17844.48112281","37.17517109","32927.29858522"
"2012-08-01","39.2","37.7","36","15140","29.15","32710","41.46783796","39.53499142","32.12243597","20258.58364138","18581.89715415","38.08592086","32957.52179927"
"2012-09-01","39.2","37.7","36","15140","29.15","32710","41.82724051","39.43386399","32.60446172","19913.11499735","18855.16629654","38.18119349","32965.71844823"
"2012-10-01","39.2","37.7","36","15140","29.15","32710","38.68169428","36.79332256","31.24476761","18017.39159187","17075.74226095","37.5284479","32777.80329619"
"2012-11-01","39.2","37.7","36","15140","29.15","32710","36.66947189","35.43028474","29.99093606","17213.85443861","16367.21374185","38.0645682","31198.15608058"
"2012-12-01","39.2","37.7","36","15140","29.15","32710","36.65792743","34.96792742","29.38412791","16483.70075872","15791.60711116","38.30744073","29895.38706084"
"2013-01-01","38.63","37.2","35.5","14927.1","29.15","32710","37.95012683","36.01010796","29.88411952","17667.47639338","16591.20845528","38.16473771","30708.63462256"
"2013-02-01","38.4","37","35.3","14840","29.15","32710","40.94763549","38.76156455","30.4947141","17781.9110015","16965.21494291","37.68926928","30881.15593185"
"2013-03-01","38.4","37","35.3","14840","29.15","32710","40.0990082","37.98492369","28.64188698","16596.11952813","16186.35555378","36.24724376","31246.6590164"
"2013-04-01","38.4","37","35.3","14840","29.15","32710","39.34600754","37.43078474","27.78557348","16083.86871196","15491.655715","35.90152054","31786.09458894"
"2013-05-01","38.4","37","35.3","14840","29.15","32710","40.20863795","37.96783114","28.06152881","16381.10563717","15635.39353427","35.8703108","31919.66951329"
"2013-06-01","38.4","37","35.3","14840","29.15","32710","41.06074352","38.81813983","29.73146123","17306.90420963","16581.01975818","36.0593457","32146.60651011"
"2013-07-01","38.4","37","35.3","14840","29.15","32710","42.45386161","40.41019737","31.04975092","17516.98534141","17207.04702035","37.4868448","29645.36339837"
"2013-08-01","38.4","37","35.3","14840","29.15","32710","42.48178822","40.68464018","32.41034243","18574.19740143","18153.18438697","39.79687996","32395.38061019"
"2013-09-01","40.74","39.28","37.45","15752","30.96","34717.67","41.03434825","39.10141583","33.17454998","18951.68609457","18402.76247173","40.30768092","33345.73893534"
"2013-10-01","42.1","40.6","38.7","16280","32","35880","39.52215781","37.88936255","32.46650843","18310.42049787","17702.27973438","41.24219818","33365.63682913"
"2013-11-01","42.1","40.6","38.7","16280","32","35880","39.29792024","37.52355711","31.68308839","17824.86068209","17045.72883999","41.17947438","33776.66341742"
"2013-12-01","42.1","40.6","38.7","16280","32","35880","40.1175731","38.13034801","32.51337549","18282.26295253","17654.09248707","41.55607839","35162.20340654"
"2014-01-01","43.06","41.49","39.59","16643.55","32.74","36681.29","41.55504325","39.39427328","32.64699576","19379.03056695","18288.74507467","43.41529577","36950.29162597"